Time,TemperatureF,DewpointF,PressureIn,WindDirection,WindDirectionDegrees,WindSpeedMPH,WindSpeedGustMPH,Humidity,HourlyPrecipIn,Conditions,Clouds,dailyrainin,SoftwareType,DateUTC
2013-08-03 00:03:00,68.5,66.4,29.73,South,180,0.0,-999.0,93,-99.99,,,0.00,Acu-Link.com,2013-08-03 05:03:00,
2013-08-03 00:18:00,68.4,66.3,29.73,East,90,0.0,-999.0,93,-99.99,,,0.00,Acu-Link.com,2013-08-03 05:18:00,
2013-08-03 00:33:00,67.8,65.7,29.72,East,90,0.0,-999.0,93,-99.99,,,0.00,Acu-Link.com,2013-08-03 05:33:00,
2013-08-03 00:49:00,67.6,65.5,29.72,East,90,0.0,-999.0,93,-99.99,,,0.00,Acu-Link.com,2013-08-03 05:49:00,
2013-08-03 01:04:00,67.5,65.4,29.74,East,90,0.0,-999.0,93,-99.99,,,0.00,Acu-Link.com,2013-08-03 06:04:00,
2013-08-03 01:19:00,67.5,65.4,29.73,NW,315,0.0,-999.0,93,-99.99,,,0.00,Acu-Link.com,2013-08-03 06:19:00,
2013-08-03 01:34:00,67.3,65.2,29.73,NW,315,0.0,-999.0,93,-99.99,,,0.00,Acu-Link.com,2013-08-03 06:34:00,
2013-08-03 01:50:00,67.3,65.2,29.74,NW,315,0.0,-999.0,93,-99.99,,,0.00,Acu-Link.com,2013-08-03 06:50:00,
2013-08-03 02:05:00,67.3,65.2,29.73,NW,315,0.0,-999.0,93,-99.99,,,0.00,Acu-Link.com,2013-08-03 07:05:00,
2013-08-03 02:20:00,67.3,65.2,29.74,NW,315,0.0,-999.0,93,-99.99,,,0.00,Acu-Link.com,2013-08-03 07:20:00,
2013-08-03 02:36:00,66.9,64.8,29.74,WSW,247,0.0,-999.0,93,-99.99,,,0.00,Acu-Link.com,2013-08-03 07:36:00,
2013-08-03 03:06:00,66.0,63.6,29.74,ESE,112,0.0,-999.0,92,-99.99,,,0.00,Acu-Link.com,2013-08-03 08:06:00,
2013-08-03 03:22:00,65.7,63.3,29.74,ESE,112,0.0,-999.0,92,-99.99,,,0.00,Acu-Link.com,2013-08-03 08:22:00,
2013-08-03 03:37:00,65.3,62.9,29.73,East,90,0.0,-999.0,92,-99.99,,,0.00,Acu-Link.com,2013-08-03 08:37:00,
2013-08-03 03:52:00,64.9,62.5,29.73,East,90,0.0,-999.0,92,-99.99,,,0.00,Acu-Link.com,2013-08-03 08:52:00,
2013-08-03 04:07:00,64.4,62.0,29.73,East,90,0.0,-999.0,92,-99.99,,,0.00,Acu-Link.com,2013-08-03 09:07:00,
2013-08-03 04:22:00,64.4,62.3,29.73,East,90,0.0,-999.0,93,-99.99,,,0.00,Acu-Link.com,2013-08-03 09:22:00,
2013-08-03 04:37:00,64.4,62.3,29.73,SSE,157,0.0,-999.0,93,-99.99,,,0.00,Acu-Link.com,2013-08-03 09:37:00,
2013-08-03 04:52:00,64.2,62.1,29.74,East,90,0.0,-999.0,93,-99.99,,,0.00,Acu-Link.com,2013-08-03 09:52:00,
2013-08-03 05:07:00,63.5,61.4,29.74,East,90,0.0,-999.0,93,-99.99,,,0.00,Acu-Link.com,2013-08-03 10:07:00,
2013-08-03 05:23:00,63.1,61.0,29.72,ESE,112,0.0,-999.0,93,-99.99,,,0.00,Acu-Link.com,2013-08-03 10:23:00,
2013-08-03 05:38:00,63.0,60.6,29.73,East,90,0.0,-999.0,92,-99.99,,,0.00,Acu-Link.com,2013-08-03 10:38:00,
2013-08-03 05:54:00,62.8,60.1,29.74,ESE,112,0.0,-999.0,91,-99.99,,,0.00,Acu-Link.com,2013-08-03 10:54:00,
2013-08-03 06:09:00,62.6,59.9,29.74,WSW,247,0.0,-999.0,91,-99.99,,,0.00,Acu-Link.com,2013-08-03 11:09:00,
2013-08-03 06:24:00,62.6,59.9,29.75,ESE,112,0.0,-999.0,91,-99.99,,,0.00,Acu-Link.com,2013-08-03 11:24:00,
2013-08-03 06:39:00,63.9,60.6,29.76,ESE,112,0.0,-999.0,89,-99.99,,,0.00,Acu-Link.com,2013-08-03 11:39:00,
2013-08-03 06:55:00,66.9,61.6,29.77,East,90,0.0,-999.0,83,-99.99,,,0.00,Acu-Link.com,2013-08-03 11:55:00,
2013-08-03 07:10:00,69.4,62.2,29.77,ESE,112,0.0,-999.0,78,-99.99,,,0.00,Acu-Link.com,2013-08-03 12:10:00,
2013-08-03 07:25:00,69.8,62.3,29.79,East,90,0.0,-999.0,77,-99.99,,,0.00,Acu-Link.com,2013-08-03 12:25:00,
2013-08-03 07:40:00,70.3,62.4,29.79,ESE,112,3.2,-999.0,76,-99.99,,,0.00,Acu-Link.com,2013-08-03 12:40:00,
2013-08-03 07:56:00,69.6,61.7,29.80,East,90,0.0,-999.0,76,-99.99,,,0.00,Acu-Link.com,2013-08-03 12:56:00,
2013-08-03 08:26:00,71.2,62.5,29.79,ESE,112,1.1,-999.0,74,-99.99,,,0.00,Acu-Link.com,2013-08-03 13:26:00,
2013-08-03 08:42:00,73.2,63.6,29.81,WNW,292,0.0,-999.0,72,-99.99,,,0.00,Acu-Link.com,2013-08-03 13:42:00,
2013-08-03 08:57:00,74.5,64.5,29.81,East,90,0.0,-999.0,71,-99.99,,,0.00,Acu-Link.com,2013-08-03 13:57:00,
2013-08-03 09:12:00,77.2,64.5,29.79,SSE,157,0.0,-999.0,65,-99.99,,,0.00,Acu-Link.com,2013-08-03 14:12:00,
2013-08-03 09:27:00,75.0,63.7,29.80,East,90,0.0,-999.0,68,-99.99,,,0.00,Acu-Link.com,2013-08-03 14:27:00,
2013-08-03 09:43:00,76.5,63.8,29.80,NNW,337,0.0,-999.0,65,-99.99,,,0.00,Acu-Link.com,2013-08-03 14:43:00,
2013-08-03 09:58:00,77.4,65.1,29.80,NE,45,0.0,-999.0,66,-99.99,,,0.00,Acu-Link.com,2013-08-03 14:58:00,
2013-08-03 10:13:00,75.7,63.5,29.81,ESE,112,0.0,-999.0,66,-99.99,,,0.00,Acu-Link.com,2013-08-03 15:13:00,
2013-08-03 10:28:00,77.0,65.2,29.80,ENE,67,0.0,-999.0,67,-99.99,,,0.00,Acu-Link.com,2013-08-03 15:28:00,
2013-08-03 10:44:00,77.2,63.2,29.81,ESE,112,0.0,-999.0,62,-99.99,,,0.00,Acu-Link.com,2013-08-03 15:44:00,
2013-08-03 10:59:00,77.9,62.4,29.82,NNW,337,0.0,-999.0,59,-99.99,,,0.00,Acu-Link.com,2013-08-03 15:59:00,
2013-08-03 11:14:00,83.1,62.5,29.82,ESE,112,0.0,-999.0,50,-99.99,,,0.00,Acu-Link.com,2013-08-03 16:14:00,
2013-08-03 11:29:00,81.5,62.7,29.82,ESE,112,0.0,-999.0,53,-99.99,,,0.00,Acu-Link.com,2013-08-03 16:29:00,
2013-08-03 11:45:00,79.5,62.4,29.83,NW,315,0.0,-999.0,56,-99.99,,,0.00,Acu-Link.com,2013-08-03 16:45:00,
2013-08-03 12:00:00,79.7,59.4,29.82,NNE,22,0.0,-999.0,50,-99.99,,,0.00,Acu-Link.com,2013-08-03 17:00:00,
2013-08-03 12:15:00,79.7,62.1,29.82,NNE,22,0.0,-999.0,55,-99.99,,,0.00,Acu-Link.com,2013-08-03 17:15:00,
2013-08-03 12:30:00,79.5,60.3,29.83,ESE,112,1.1,-999.0,52,-99.99,,,0.00,Acu-Link.com,2013-08-03 17:30:00,
2013-08-03 12:45:00,79.9,61.7,29.82,SSE,157,0.0,-999.0,54,-99.99,,,0.00,Acu-Link.com,2013-08-03 17:45:00,
2013-08-03 13:01:00,80.4,61.7,29.82,NNE,22,0.0,-999.0,53,-99.99,,,0.00,Acu-Link.com,2013-08-03 18:01:00,
2013-08-03 13:16:00,80.8,60.4,29.83,NE,45,2.2,-999.0,50,-99.99,,,0.00,Acu-Link.com,2013-08-03 18:16:00,
2013-08-03 13:31:00,80.4,59.5,29.83,East,90,1.1,-999.0,49,-99.99,,,0.00,Acu-Link.com,2013-08-03 18:31:00,
2013-08-03 13:47:00,81.5,61.0,29.83,NE,45,5.3,-999.0,50,-99.99,,,0.00,Acu-Link.com,2013-08-03 18:47:00,
2013-08-03 14:02:00,85.1,62.0,29.82,East,90,1.7,-999.0,46,-99.99,,,0.00,Acu-Link.com,2013-08-03 19:02:00,
2013-08-03 14:17:00,86.0,60.2,29.83,ESE,112,4.2,-999.0,42,-99.99,,,0.00,Acu-Link.com,2013-08-03 19:17:00,
2013-08-03 14:32:00,92.1,63.5,29.83,NNE,22,0.0,-999.0,39,-99.99,,,0.00,Acu-Link.com,2013-08-03 19:32:00,
2013-08-03 14:48:00,89.8,61.5,29.83,ESE,112,0.0,-999.0,39,-99.99,,,0.00,Acu-Link.com,2013-08-03 19:48:00,
2013-08-03 15:03:00,90.5,63.5,29.82,SSE,157,4.2,-999.0,41,-99.99,,,0.00,Acu-Link.com,2013-08-03 20:03:00,
2013-08-03 15:18:00,92.8,62.7,29.83,SSE,157,2.7,-999.0,37,-99.99,,,0.00,Acu-Link.com,2013-08-03 20:18:00,
2013-08-03 15:34:00,92.5,61.6,29.83,ESE,112,1.7,-999.0,36,-99.99,,,0.00,Acu-Link.com,2013-08-03 20:34:00,
2013-08-03 15:49:00,88.9,60.0,29.82,East,90,2.7,-999.0,38,-99.99,,,0.00,Acu-Link.com,2013-08-03 20:49:00,
2013-08-03 16:04:00,90.0,59.4,29.82,SE,135,2.7,-999.0,36,-99.99,,,0.00,Acu-Link.com,2013-08-03 21:04:00,
2013-08-03 16:19:00,91.0,60.3,29.82,NNW,337,0.0,-999.0,36,-99.99,,,0.00,Acu-Link.com,2013-08-03 21:19:00,
2013-08-03 16:35:00,92.1,62.0,29.82,ESE,112,3.2,-999.0,37,-99.99,,,0.00,Acu-Link.com,2013-08-03 21:35:00,
2013-08-03 16:50:00,84.6,59.6,29.83,East,90,0.0,-999.0,43,-99.99,,,0.00,Acu-Link.com,2013-08-03 21:50:00,
2013-08-03 17:05:00,82.9,59.4,29.82,WNW,292,0.0,-999.0,45,-99.99,,,0.00,Acu-Link.com,2013-08-03 22:05:00,
2013-08-03 17:20:00,80.4,58.9,29.82,East,90,0.0,-999.0,48,-99.99,,,0.00,Acu-Link.com,2013-08-03 22:20:00,
2013-08-03 17:35:00,79.5,60.3,29.83,NNW,337,0.0,-999.0,52,-99.99,,,0.00,Acu-Link.com,2013-08-03 22:35:00,
2013-08-03 18:37:00,76.5,59.6,29.83,NE,45,0.0,-999.0,56,-99.99,,,0.00,Acu-Link.com,2013-08-03 23:37:00,
2013-08-03 18:52:00,75.9,59.6,29.84,South,180,1.7,-999.0,57,-99.99,,,0.00,Acu-Link.com,2013-08-03 23:52:00,
2013-08-03 19:07:00,74.8,60.0,29.84,NNW,337,0.0,-999.0,60,-99.99,,,0.00,Acu-Link.com,2013-08-04 00:07:00,
2013-08-03 19:23:00,73.9,59.6,29.84,ESE,112,0.0,-999.0,61,-99.99,,,0.00,Acu-Link.com,2013-08-04 00:23:00,
2013-08-03 19:38:00,72.7,59.4,29.83,ESE,112,0.0,-999.0,63,-99.99,,,0.00,Acu-Link.com,2013-08-04 00:38:00,
2013-08-03 19:53:00,71.8,59.0,29.83,East,90,0.0,-999.0,64,-99.99,,,0.00,Acu-Link.com,2013-08-04 00:53:00,
2013-08-03 20:09:00,70.7,59.6,29.83,East,90,0.0,-999.0,68,-99.99,,,0.00,Acu-Link.com,2013-08-04 01:09:00,
2013-08-03 20:24:00,69.4,57.5,29.85,East,90,0.0,-999.0,66,-99.99,,,0.00,Acu-Link.com,2013-08-04 01:24:00,
2013-08-03 20:39:00,68.2,57.6,29.84,East,90,0.0,-999.0,69,-99.99,,,0.00,Acu-Link.com,2013-08-04 01:39:00,
2013-08-03 20:54:00,67.3,56.4,29.85,East,90,0.0,-999.0,68,-99.99,,,0.00,Acu-Link.com,2013-08-04 01:54:00,
2013-08-03 21:10:00,66.7,55.8,29.87,East,90,0.0,-999.0,68,-99.99,,,0.00,Acu-Link.com,2013-08-04 02:10:00,
2013-08-03 21:25:00,66.4,55.9,29.86,East,90,0.0,-999.0,69,-99.99,,,0.00,Acu-Link.com,2013-08-04 02:25:00,
2013-08-03 21:40:00,66.0,56.3,29.87,East,90,0.0,-999.0,71,-99.99,,,0.00,Acu-Link.com,2013-08-04 02:40:00,
2013-08-03 21:55:00,65.7,56.0,29.87,East,90,0.0,-999.0,71,-99.99,,,0.00,Acu-Link.com,2013-08-04 02:55:00,
2013-08-03 22:11:00,65.1,55.8,29.87,East,90,0.0,-999.0,72,-99.99,,,0.00,Acu-Link.com,2013-08-04 03:11:00,
2013-08-03 22:41:00,64.4,57.7,29.88,East,90,0.0,-999.0,79,-99.99,,,0.00,Acu-Link.com,2013-08-04 03:41:00,
2013-08-03 22:57:00,64.0,56.6,29.88,East,90,0.0,-999.0,77,-99.99,,,0.00,Acu-Link.com,2013-08-04 03:57:00,
2013-08-03 23:12:00,63.5,56.2,29.88,East,90,0.0,-999.0,77,-99.99,,,0.00,Acu-Link.com,2013-08-04 04:12:00,
2013-08-03 23:27:00,63.5,56.2,29.88,East,90,0.0,-999.0,77,-99.99,,,0.00,Acu-Link.com,2013-08-04 04:27:00,
2013-08-03 23:43:00,63.9,57.3,29.89,East,90,0.0,-999.0,79,-99.99,,,0.00,Acu-Link.com,2013-08-04 04:43:00,
2013-08-03 23:58:00,63.7,57.4,29.89,East,90,0.0,-999.0,80,-99.99,,,0.00,Acu-Link.com,2013-08-04 04:58:00,